Weather History for KPIH - April, 2013

Change the Weather History Date:

Sunday, April 21, 2013

  Actual Average Record
Temperature  
Mean Temperature 52 °F 47 °F  
Max Temperature 64 °F 60 °F 86 °F (1994)
Min Temperature 39 °F 34 °F 15 °F (2008)
Degree Days  
Heating Degree Days 13 18  
Month to date heating degree days 455 430  
Since 1 July heating degree days 6357 6542  
Cooling Degree Days 0 0  
Month to date cooling degree days 0 0  
Year to date cooling degree days 0 0  
Growing Degree Days 2 (Base 50)    
Moisture  
Dew Point 25 °F    
Average Humidity 37    
Maximum Humidity 55    
Minimum Humidity 19    
Precipitation  
Precipitation 0.00 in 0.04 in 0.50 in (2010)
Month to date precipitation 0.42 0.76  
Year to date precipitation 2.22 3.98  
Snow  
Snow 0.00 in - - ()
Month to date snowfall 1.0  
Since 1 July snowfall 35.7  
Snow Depth 0.00 in    
Sea Level Pressure  
Sea Level Pressure 30.00 in    
Wind  
Wind Speed 19 mph (SW)    
Max Wind Speed 35 mph    
Max Gust Speed 44 mph    
Visibility 10 miles    
Events      
T = Trace of Precipitation, MM = Missing Value Source: NWS Daily Summary

Daily Weather History Graph

Daily Weather History Graph

Search for Another Location

Airport or City:

Trip Planner

Search our weather history database for the weather conditions in past years. The results will help you decide how hot, cold, wet, or windy it might be!

Date:

Astronomy

Apr. 21, 2013 Rise Set
Actual Time 6:38 AM MDT 8:20 PM MDT
Civil Twilight 6:08 AM MDT 8:50 PM MDT
Nautical Twilight 5:32 AM MDT 9:26 PM MDT
Astronomical Twilight 4:53 AM MDT 10:06 PM MDT
Moon 4:03 PM MDT (4/21) 4:09 AM MDT (4/21)
Length of Visible Light 14h 41m
Length of Day
13h 41m
Waxing Gibbous, 80% of the Moon is Illuminated
Apr 21
Waxing Gibbous
Apr 25
Full
May 2
Last Quarter
May 9
New
May 17
First Quarter

Hourly Weather History & Observations

Time (MDT) Temp. Windchill Dew Point Humidity Pressure Visibility Wind Dir Wind Speed Gust Speed Precip Events Conditions
12:53 AM 42.1 °F 34.9 °F 27.0 °F 55% 30.07 in 10.0 mi SSW 13.8 mph - N/A   Clear
1:53 AM 43.0 °F 35.4 °F 27.0 °F 53% 30.06 in 10.0 mi SW 16.1 mph - N/A   Clear
2:53 AM 43.0 °F 35.1 °F 26.1 °F 51% 30.07 in 10.0 mi SSW 17.3 mph 25.3 mph N/A   Clear
3:53 AM 41.0 °F 34.3 °F 26.1 °F 55% 30.06 in 10.0 mi SSW 11.5 mph - N/A   Clear
4:53 AM 41.0 °F 33.5 °F 26.1 °F 55% 30.06 in 10.0 mi SSW 13.8 mph - N/A   Clear
5:53 AM 41.0 °F 33.1 °F 26.1 °F 55% 30.06 in 10.0 mi SW 15.0 mph - N/A   Clear
6:53 AM 41.0 °F 33.5 °F 26.1 °F 55% 30.07 in 10.0 mi SW 13.8 mph - N/A   Clear
7:53 AM 44.1 °F 38.1 °F 27.0 °F 51% 30.09 in 10.0 mi SW 11.5 mph - N/A   Clear
8:53 AM 46.0 °F 39.3 °F 28.9 °F 51% 30.10 in 10.0 mi SW 16.1 mph - N/A   Partly Cloudy
9:53 AM 48.0 °F - 28.0 °F 46% 30.09 in 10.0 mi SW 23.0 mph - N/A   Partly Cloudy
10:53 AM 52.0 °F - 28.0 °F 40% 30.07 in 10.0 mi SSW 17.3 mph 24.2 mph N/A   Partly Cloudy
11:53 AM 57.0 °F - 28.0 °F 33% 30.05 in 10.0 mi WSW 20.7 mph 27.6 mph N/A   Partly Cloudy
12:53 PM 59.0 °F - 27.0 °F 29% 30.02 in 10.0 mi West 20.7 mph 28.8 mph N/A   Scattered Clouds
1:53 PM 59.0 °F - 25.0 °F 27% 29.99 in 10.0 mi WSW 23.0 mph 31.1 mph N/A   Scattered Clouds
2:53 PM 61.0 °F - 21.9 °F 22% 29.96 in 10.0 mi WSW 25.3 mph 33.4 mph N/A   Mostly Cloudy
3:53 PM 63.0 °F - 19.9 °F 19% 29.94 in 10.0 mi WSW 31.1 mph 41.4 mph N/A   Scattered Clouds
4:53 PM 61.0 °F - 17.1 °F 18% 29.92 in 10.0 mi West 28.8 mph 39.1 mph N/A   Scattered Clouds
5:53 PM 57.9 °F - 21.0 °F 24% 29.92 in 10.0 mi WSW 29.9 mph 39.1 mph N/A   Mostly Cloudy
6:53 PM 57.0 °F - 21.0 °F 25% 29.92 in 10.0 mi WSW 28.8 mph 35.7 mph N/A   Scattered Clouds
7:53 PM 54.0 °F - 25.0 °F 33% 29.91 in 10.0 mi WSW 20.7 mph - N/A   Clear
8:53 PM 50.0 °F - 25.0 °F 38% 29.93 in 10.0 mi West 15.0 mph - N/A   Clear
9:53 PM 44.1 °F 40.1 °F 25.0 °F 47% 29.96 in 10.0 mi South 6.9 mph - N/A   Clear
10:53 PM 48.0 °F - 26.1 °F 42% 29.94 in 10.0 mi SSW 11.5 mph - N/A   Mostly Cloudy
11:53 PM 45.0 °F 38.5 °F 27.0 °F 49% 29.92 in 10.0 mi WSW 13.8 mph - N/A   Clear